EW6754 Weather Reports


Display with metric or nautical units.
time (UTC)temp
F
wind
direction
speed
MPH
gust
MPH
rain 1hr
in
rain 24hr
in
rain mn
in
humidity
%
barometer
mb
20200402101657 68 188 0.0 0.0 0.00 0.00 0.00 88 1013.4
20200402100202 69 189 0.0 0.0 0.00 0.00 0.00 88 1013.3
20200402094932 69 189 0.0 0.0 0.00 0.00 0.00 88 1013.1
20200402093130 69 189 0.0 0.0 0.00 0.00 0.00 88 1012.8
20200402091653 69 189 0.0 0.0 0.00 0.00 0.00 88 1012.6
20200402090115 69 189 0.0 0.0 0.00 0.00 0.00 88 1012.6
20200402084605 69 229 0.0 0.0 0.00 0.00 0.00 88 1012.4
20200402083128 69 229 0.0 0.0 0.00 0.00 0.00 88 1012.3
20200402081715 69 229 0.0 0.0 0.00 0.00 0.00 88 1012.1
20200402080126 70 195 0.0 0.0 0.00 0.00 0.00 88 1012.1
20200402074712 70 217 0.0 0.0 0.00 0.00 0.00 88 1012.2
20200402073102 70 217 0.0 0.0 0.00 0.00 0.00 88 1012.3
20200402071714 70 255 0.0 0.0 0.00 0.00 0.00 88 1012.3
20200402070159 70 162 0.0 0.0 0.00 0.00 0.00 88 1012.3
20200402064704 70 239 0.0 0.0 0.00 0.00 0.00 88 1012.4
20200402063108 70 191 0.0 0.0 0.00 0.00 0.00 88 1012.5
20200402061658 70 115 0.0 0.0 0.00 0.00 0.00 88 1012.5
20200402060156 70 115 0.0 0.0 0.00 0.00 0.00 88 1012.7
20200402054623 71 237 0.0 0.0 0.00 0.00 0.00 87 1012.9
20200402053123 71 190 0.0 0.0 0.00 0.00 0.00 87 1013.1
20200402051650 71 213 0.0 0.0 0.00 0.00 0.00 87 1013.2
20200402050107 71 220 0.0 0.0 0.00 0.00 0.00 87 1013.5
20200402044632 71 184 0.0 0.0 0.00 0.00 0.00 87 1013.5
20200402043033 71 229 0.0 0.0 0.00 0.00 0.00 87 1013.7
20200402041530 72 228 0.0 2.0 0.00 0.00 0.00 87 1013.7
20200402040018 72 233 0.0 0.0 0.00 0.00 0.00 87 1013.7
20200402034549 72 234 0.0 1.0 0.00 0.00 0.00 86 1013.7
20200402033037 72 234 0.0 0.0 0.00 0.00 0.00 86 1013.8
20200402031543 72 254 0.0 4.0 0.00 0.00 0.00 86 1013.7
20200402024559 73 229 2.0 5.0 0.00 0.00 0.00 84 1013.8
20200402023109 73 234 1.0 3.0 0.00 0.00 0.00 84 1013.9
20200402021513 73 255 1.0 4.0 0.00 0.00 0.00 83 1013.8
20200402020016 74 236 2.0 5.0 0.00 0.00 0.00 82 1013.5
20200402014516 74 235 2.0 4.0 0.00 0.00 0.00 82 1013.4
20200402013031 74 224 1.0 4.0 0.00 0.00 0.00 81 1013.1
20200402011512 74 259 2.0 4.0 0.00 0.00 0.00 81 1013.0
20200402004607 75 224 0.0 3.0 0.00 0.00 0.00 80 1012.7
20200402001615 77 209 1.0 5.0 0.00 0.00 0.00 77 1012.5
20200402000042 77 153 1.0 4.0 0.00 0.00 0.00 76 1012.4
20200401234531 78 177 2.0 5.0 0.00 0.00 0.00 75 1012.1
20200401233115 78 127 2.0 5.0 0.00 0.00 0.00 74 1012.0
20200401231531 78 118 3.0 7.0 0.00 0.00 0.00 73 1011.7
20200401230026 79 150 3.0 8.0 0.00 0.00 0.00 72 1011.5
20200401224519 79 127 3.0 8.0 0.00 0.00 0.00 71 1011.4
20200401223058 81 134 2.0 7.0 0.00 0.00 0.00 69 1011.2
20200401221524 82 169 3.0 8.0 0.00 0.00 0.00 66 1011.0
20200401220015 83 181 4.0 10.0 0.00 0.00 0.00 64 1010.8
20200401214511 85 193 3.0 8.0 0.00 0.00 0.00 61 1010.5
20200401213007 86 178 2.0 10.0 0.00 0.00 0.00 58 1010.3
20200401211520 87 179 4.0 10.0 0.00 0.00 0.00 53 1010.3
20200401210004 87 173 4.0 10.0 0.00 0.00 0.00 55 1010.2
20200401204506 88 254 5.0 10.0 0.00 0.00 0.00 52 1010.3
20200401203004 88 229 5.0 10.0 0.00 0.00 0.00 55 1010.2
20200401201704 89 122 4.0 9.0 0.00 0.00 0.00 53 1010.2
20200401200120 90 256 4.0 11.0 0.00 0.00 0.00 47 1010.2
20200401194717 91 168 5.0 8.0 0.00 0.00 0.00 45 1010.2
20200401193131 91 230 3.0 8.0 0.00 0.00 0.00 45 1010.3
20200401191836 90 134 3.0 7.0 0.00 0.00 0.00 46 1010.3
20200401190117 90 167 3.0 18.0 0.00 0.00 0.00 45 1010.5
20200401184716 89 176 6.0 11.0 0.00 0.00 0.00 45 1010.6
20200401183105 89 192 3.0 9.0 0.00 0.00 0.00 48 1010.8
20200401181557 88 132 4.0 10.0 0.00 0.00 0.00 48 1010.9
20200401180053 88 246 4.0 12.0 0.00 0.00 0.00 49 1011.0
20200401174607 89 198 4.0 11.0 0.00 0.00 0.00 49 1011.3
20200401173200 88 155 5.0 12.0 0.00 0.00 0.00 51 1011.5
20200401171720 88 173 4.0 13.0 0.00 0.00 0.00 51 1011.7
20200401170047 88 288 5.0 12.0 0.00 0.00 0.00 50 1011.8
20200401164659 88 152 6.0 12.0 0.00 0.00 0.00 50 1012.0
20200401163050 87 226 5.0 10.0 0.00 0.00 0.00 50 1012.2
20200401161540 87 188 3.0 9.0 0.00 0.00 0.00 54 1012.3
20200401160127 87 136 2.0 10.0 0.00 0.00 0.00 56 1012.4
20200401154635 86 266 4.0 10.0 0.00 0.00 0.00 54 1012.5
20200401153045 85 119 6.0 9.0 0.00 0.00 0.00 57 1012.5
20200401151719 85 148 6.0 11.0 0.00 0.00 0.00 56 1012.7
20200401150055 84 170 3.0 9.0 0.00 0.00 0.00 57 1012.9
20200401144522 83 105 4.0 12.0 0.00 0.00 0.00 59 1013.1
20200401143031 83 164 4.0 10.0 0.00 0.00 0.00 59 1013.2
20200401141556 81 203 4.0 8.0 0.00 0.00 0.00 63 1013.3
20200401140017 81 155 0.0 3.0 0.00 0.00 0.00 69 1013.2
20200401134522 79 307 1.0 3.0 0.00 0.00 0.00 71 1013.3
20200401133054 79 115 2.0 5.0 0.00 0.00 0.00 71 1013.3
20200401131526 79 117 2.0 4.0 0.00 0.00 0.00 72 1013.5
20200401130008 78 88 1.0 4.0 0.00 0.00 0.00 74 1013.6
20200401124507 78 46 0.0 0.0 0.00 0.00 0.00 73 1013.6
20200401123012 78 28 0.0 0.0 0.00 0.00 0.00 73 1013.6
20200401121742 75 16 0.0 0.0 0.00 0.00 0.00 78 1013.6
20200401120214 75 248 0.0 0.0 0.00 0.00 0.00 80 1013.5
20200401114646 72 182 0.0 0.0 0.00 0.00 0.00 84 1013.3
20200401113100 71 182 0.0 0.0 0.00 0.00 0.00 87 1013.2
20200401111637 70 172 0.0 0.0 0.00 0.00 0.00 87 1012.9
20200401110132 68 153 0.0 0.0 0.00 0.00 0.00 88 1012.8
20200401104605 67 233 0.0 0.0 0.00 0.00 0.00 88 1012.7
20200401103241 67 222 0.0 0.0 0.00 0.00 0.00 88 1012.5